sat.trackr.live / text

‹ back to catalog

STARLINK-36456

NORAD 67357 · 2026-003Z

PAYLOAD ACTIVE UNKNOWN

§ Identity

Operator
Country
US
Launch date
2026-01-09
Launch site
AFETR
Launch vehicle
Mass (kg)
RCS (m²)

Purposes: comms

External: N2YO · Heavens-Above · Gunter

§ Orbital elements

Epoch: 2026-09-19T13:26:05.217504Z

Period
94.27 min
Inclination
42.9969°
Eccentricity
0.0000938
Mean motion
15.27586906 rev/d
Perigee alt
482.4 km
Apogee alt
483.7 km
Semi-major
6,861.2 km
B*
2.9815e-4
RAAN
212.1988°
Arg perigee
264.3845°
Mean anomaly
95.6900°
Rev number
3,847

§ Raw data

STARLINK-364561 67357U 26003Z   26262.55978261  .00007953  00000+0  29815-3 0  99912 67357  42.9969 212.1988 0000938 264.3845  95.6900 15.27586906 38472

JSON: /api/v1/satellites/67357 · /tle

For live sub-satellite position, see the globe view (requires WebGL).

§ Visibility from observer

Set your observer location to see the next 7 days of passes ≥ 10°. The values pass through the URL so the page stays shareable.

No JS? Fill the form by hand. The geolocation button needs JavaScript.